Weather History for Nome, AK

Change the Weather History Date:

Saturday, March 31, 2012

  Actual Average Record
Temperature  
Mean Temperature 10 °F 13 °F  
Max Temperature 19 °F 21 °F 42 °F (1993)
Min Temperature 1 °F - -28 °F (1920)
Degree Days  
Heating Degree Days 55 52  
Month to date heating degree days 1998 1696  
Since 1 July heating degree days 12397 10978  
Cooling Degree Days 0    
Month to date cooling degree days 0  
Year to date cooling degree days 0  
Moisture  
Dew Point -1 °F    
Average Humidity 0    
Maximum Humidity 0    
Minimum Humidity 0    
Precipitation  
Precipitation 0.00 in 0.02 in 0.45 in (1998)
Month to date precipitation 0.32 0.65  
Year to date precipitation 1.56 2.52  
Snow  
Snow 0.00 in 0.20 in 6.30 in (1998)
Month to date snowfall 6.6 8.9  
Since 1 July snowfall 73.2 65.6  
Snow Depth 26.00 in    
Sea Level Pressure  
Sea Level Pressure 29.72 in    
Wind  
Wind Speed 5 mph (NNW)    
Max Wind Speed 15 mph    
Max Gust Speed 16 mph    
Visibility 10 miles    
Events      
T = Trace of Precipitation, MM = Missing Value Source: NWS Daily Summary

Daily Weather History Graph

Daily Weather History Graph

Search for Another Location

Airport:

Trip Planner

Search our weather history database for the weather conditions in past years. The results will help you decide how hot, cold, wet, or windy it might be!

Date:

Astronomy

Mar. 31, 2012 Rise Set
Actual Time 8:19 AM AKDT 9:53 PM AKDT
Civil Twilight 7:29 AM AKDT 10:44 PM AKDT
Nautical Twilight 6:24 AM AKDT 11:50 PM AKDT
Astronomical Twilight 4:57 AM AKDT 1:19 AM AKDT
Moon 1:17 PM AKDT (3/31) 6:45 AM AKDT (3/31)
Length of Visible Light 15h 14m
Length of Day
13h 33m
First Quarter, 60% of the Moon is Illuminated
Mar 31
First Quarter
Apr 6
Full
Apr 13
Last Quarter
Apr 20
New
Apr 29
First Quarter

Hourly Weather History & Observations

Time (AKDT) Temp. Windchill Dew Point Humidity Pressure Visibility Wind Dir Wind Speed Gust Speed Precip Events Conditions
12:53 AM 7.0 °F -7.5 °F -2.0 °F 67% 29.60 in 10.0 mi NNW 10.4 mph - N/A   Partly Cloudy
1:53 AM 7.0 °F -8.3 °F -2.9 °F 64% 29.60 in 10.0 mi North 11.5 mph - N/A   Partly Cloudy
2:53 AM 6.1 °F -7.8 °F -4.0 °F 63% 29.62 in 10.0 mi North 9.2 mph - N/A   Partly Cloudy
3:53 AM 6.1 °F -2.8 °F -4.0 °F 63% 29.63 in 10.0 mi Variable 4.6 mph - N/A   Partly Cloudy
4:53 AM 5.0 °F -10.8 °F -5.1 °F 63% 29.64 in 10.0 mi North 11.5 mph - N/A   Partly Cloudy
5:53 AM 3.9 °F -3.4 °F -6.0 °F 64% 29.64 in 10.0 mi North 3.5 mph - N/A   Partly Cloudy
6:53 AM 3.0 °F -8.0 °F -6.0 °F 66% 29.65 in 10.0 mi North 5.8 mph - N/A   Partly Cloudy
7:53 AM 6.1 °F - -6.0 °F 58% 29.66 in 10.0 mi Calm Calm - N/A   Partly Cloudy
8:53 AM 3.0 °F -4.4 °F -7.1 °F 63% 29.67 in 10.0 mi North 3.5 mph - N/A   Partly Cloudy
9:53 AM 6.1 °F - -5.1 °F 60% 29.68 in 10.0 mi Calm Calm - N/A   Scattered Clouds
10:53 AM 7.0 °F 0.1 °F -6.0 °F 55% 29.70 in 10.0 mi North 3.5 mph - N/A   Scattered Clouds
11:53 AM 12.9 °F - -2.0 °F 51% 29.71 in 10.0 mi Calm Calm - N/A   Scattered Clouds
12:53 PM 12.9 °F - -0.0 °F 56% 29.73 in 10.0 mi Calm Calm - N/A   Scattered Clouds
1:53 PM 12.9 °F 3.8 °F 3.0 °F 65% 29.75 in 10.0 mi NW 5.8 mph - N/A   Mostly Cloudy
2:53 PM 16.0 °F 7.4 °F 3.9 °F 59% 29.75 in 10.0 mi NNW 5.8 mph - N/A   Mostly Cloudy
3:53 PM 19.0 °F 12.3 °F 1.9 °F 47% 29.76 in 10.0 mi Variable 4.6 mph - N/A   Scattered Clouds
4:53 PM 19.0 °F 11.1 °F 3.0 °F 50% 29.76 in 10.0 mi North 5.8 mph - 0.00 in   Clear
5:53 PM 17.1 °F 8.7 °F 6.1 °F 62% 29.77 in 10.0 mi North 5.8 mph - N/A   Mostly Cloudy
6:53 PM 16.0 °F 8.8 °F 5.0 °F 62% 29.78 in 10.0 mi North 4.6 mph - N/A   Clear
7:53 PM 15.1 °F - 3.9 °F 61% 29.79 in 10.0 mi Calm Calm - N/A   Mostly Cloudy
8:53 PM 10.9 °F 0.2 °F 3.0 °F 70% 29.81 in 10.0 mi NNW 6.9 mph - N/A   Clear
9:53 PM 7.0 °F -6.6 °F -0.9 °F 70% 29.82 in 10.0 mi NNW 9.2 mph - N/A   Partly Cloudy
10:53 PM 7.0 °F -5.7 °F -2.0 °F 67% 29.84 in 10.0 mi NNW 8.1 mph - N/A   Clear
11:53 PM 3.0 °F -9.3 °F -4.0 °F 73% 29.85 in 10.0 mi North 6.9 mph - N/A   Partly Cloudy